Location: ??
(35.4824°N, 139.4679°E)
Time: 20:42:46
(UTC+00:00)

ADEOS Rocket - Pass Details

Date: 29 October 2020
Orbit: 859 x 1306 km, 98.7° (Epoch: 24 November)

Event Time Altitude Azimuth Distance (km) Brightness Sun altitude
Rises 19:49:58 0° 198° (SSW) 3,451 5.8 -15.2°
Reaches altitude 10° 19:52:49 10° 212° (SSW) 2,496 4.9 -14.6°
Maximum altitude 19:57:08 24° 265° (W) 1,719 3.7 -13.7°
Drops below altitude 10° 20:01:31 10° 318° (NW) 2,522 4.7 -12.8°
Sets 20:04:25 0° 332° (NNW) 3,497 5.6 -12.3°
